Regional Weather Roundup
Issued by NWS

Home | Current Version | Previous Version | Text Only | Print | Product List | Glossary Off
Versions: 1 2 3 4 5 6 7 8 9 10 11 12 13 14 15 16 17 18 19 20 21 22 23 24 25 26 27 28 29 30 31 32 33 34 35 36 37 38 39 40 41 42 43 44 45 46 47 48 49 50

000
ASUS45 KCYS 020710
RWRWY

WYOMING REGIONAL WEATHER ROUNDUP
NATIONAL WEATHER SERVICE CHEYENNE WY
100 AM MDT TUE SEP 02 2014

NOTE:  "FAIR" INDICATES FEW OR NO CLOUDS BELOW 12,000 FEET
WITH NO SIGNIFICANT WEATHER AND/OR OBSTRUCTIONS TO VISIBILITY.

WYZ001-020800-
YELLOWSTONE NATIONAL PARK

CITY           SKY/WX    TMP DP  RH WIND       PRES   REMARKS
LK YELLOWSTONE   N/A     33  32  96 CALM      30.23F
W YELLOWSTONE  NOT AVBL

$$
WYZ002>013-054>058-071-098>099-020800-
NORTHERN WYOMING

CITY           SKY/WX    TMP DP  RH WIND       PRES   REMARKS
JACKSON        CLEAR     46  37  71 CALM      30.16F
CODY             N/A    N/A N/A N/A MISG        N/A
GREYBULL       CLEAR     53  45  74 SE5       29.99S
WORLAND        CLEAR     49  42  77 S7        30.00S
SHERIDAN       CLEAR     45  40  82 S6        29.98F
BUFFALO        CLEAR     47  41  80 S7        30.05S
GILLETTE       CLEAR     49  42  77 S9        30.02F
HULETT         FAIR      48  39  71 MISG      30.03
NEWCASTLE      FAIR      45  37  76 CALM      30.07

$$
WYZ014>020-022>026-101>103-020800-
CENTRAL WYOMING

CITY           SKY/WX    TMP DP  RH WIND       PRES   REMARKS
BIG PINEY      CLEAR     37  32  82 N8        30.22S WCI  31
PINEDALE       SUNNY     34  32  93 NW7       30.22F WCI  28
DUBOIS         FAIR      41  32  70 NW14      30.17S
LANDER         CLEAR     53  31  42 SE3       30.08F
RIVERTON       CLEAR     55  29  36 NW13      30.08F
CASPER         CLEAR     40  38  93 CALM      30.08S
DOUGLAS        CLEAR     50  44  80 SE10      30.09F

$$
WYZ021-027>030-104>119-020800-
SOUTHERN WYOMING

CITY           SKY/WX    TMP DP  RH WIND       PRES   REMARKS
EVANSTON       CLEAR     50  31  48 SE8       30.22F
KEMMERER       SUNNY     46  32  57 SW3       30.23S
FORT BRIDGER   FAIR      53  33  45 SW8       30.25S
ROCK SPRINGS   CLEAR     50  31  48 SW8       30.20F
DIXON          FAIR      47  36  66 E3        30.23S
RAWLINS        CLEAR     50  30  46 CALM      30.18S
SARATOGA       FAIR      45  32  61 S5        30.22S
LARAMIE        CLEAR     42  35  76 S8        30.20F
CHEYENNE       CLEAR     46  41  82 W7        30.17F
TORRINGTON     CLEAR     48  45  89 N8        30.08S
PINE BLUFFS    FAIR      43  41  93 W6        30.14S

$$



USA.gov is the U.S. government's official web portal to all federal, state and local government web resources and services.